Theta_e
324 324 325 326 328 331 333 335 337 339 340 339 341 343 343 344 344 344 344 342 338 338 346 352 353 350 347 346 347 345 339 334 332
321 325 326 327 328 329 332 335 336 337 340 341 342 343 343 344 345 346 345 344 343 343 347 351 352 351 346 345 347 345 339 336 332
319 321 326 328 329 330 331 334 336 337 340 341 342 343 343 344 346 347 347 345 343 341 343 350 352 351 348 346 347 345 341 335 333
318 322 324 328 331 332 332 334 335 336 337 340 342 343 342 343 344 348 348 347 346 343 341 345 351 351 348 346 347 344 339 335 333
318 324 325 329 330 331 333 334 334 336 338 340 342 337 344 343 344 345 349 349 348 347 345 345 349 351 350 346 346 345 338 333 332
323 330 330 326 327 330 332 335 335 337 340 341 341 341 345 346 345 346 347 349 351 350 349 348 349 351 350 348 345 345 341 335 331
328 332 333 331 329 328 331 335 338 340 342 342 343 345 345 345 347 348 350 351 351 352 352 350 349 350 350 349 347 345 341 335 331
334 339 335 335 335 336 333 332 338 344 346 346 346 344 345 348 351 353 354 354 354 355 352 351 351 351 350 350 347 346 341 335 331
335 337 338 338 338 339 340 341 337 343 346 348 350 349 350 353 353 353 353 355 355 355 353 352 350 350 349 347 347 340 339 338 333
332 335 339 340 339 337 339 342 344 345 348 347 348 349 350 351 352 352 353 354 355 355 353 353 351 351 349 348 347 337 337 338 332
330 333 340 339 339 340 342 344 346 347 348 349 349 350 350 351 351 350 353 353 354 355 355 354 353 352 351 349 346 335 333 336 332
330 330 336 339 341 342 344 345 347 347 347 348 349 350 352 354 355 354 352 351 352 354 354 353 353 353 352 349 346 331 332 333 334
330 331 329 334 339 344 344 345 348 346 346 347 349 351 351 353 354 352 353 353 353 353 352 353 354 353 353 345 349 329 329 332 330
332 329 335 337 344 345 346 348 347 344 347 347 351 351 351 350 351 350 350 350 351 351 350 350 350 351 351 350 347 334 325 326 331
330 329 336 341 342 342 342 347 343 343 345 349 351 348 344 343 345 347 349 347 347 346 348 346 346 348 348 346 341 326 321 321 325
328 328 334 334 335 334 337 339 343 342 343 344 344 337 333 334 339 344 348 346 345 342 343 344 345 344 344 339 333 331 321 319 320
326 325 329 332 334 335 337 339 340 335 336 335 333 330 331 332 337 340 345 345 345 343 343 345 344 344 342 342 332 331 328 322 322
326 324 328 332 333 333 330 331 332 333 332 333 333 332 333 334 337 341 343 345 344 342 344 342 346 346 345 339 332 332 323 321 323
324 326 328 327 326 326 328 332 331 332 335 335 333 334 335 335 337 340 342 342 341 319 316 311 309 307 320 343 326 315 311 308 308
323 327 327 327 327 330 330 333 334 335 337 336 335 333 334 336 330 337 338 338 338 338 332 310 308 305 305 305 318 308 307 305 305
Wind_Speed
9 10 11 13 17 15 15 15 13 13 13 10 10 11 11 7 7 5 5 5 4 4 5 4 4 5 4 4 4 4 4 2 2
9 10 12 14 13 15 15 14 15 16 14 11 11 12 9 8 7 7 7 6 5 4 4 4 6 6 6 6 6 6 5 3 3
6 7 9 11 11 14 12 13 13 10 13 15 10 7 7 8 10 8 6 6 7 7 5 5 6 6 6 6 6 6 5 4 3
4 5 7 11 9 9 8 7 8 10 10 9 7 2 6 7 8 8 7 7 7 7 5 6 7 7 7 7 7 7 6 5 5
5 6 3 7 7 7 9 8 8 11 9 12 15 15 11 9 7 7 8 9 8 7 8 7 8 7 8 9 8 8 8 7 6
7 4 1 4 7 6 6 7 7 8 8 13 16 12 10 8 9 9 10 10 9 9 9 8 8 9 10 10 10 10 9 9 9
5 3 4 6 6 5 5 4 5 6 4 7 11 11 9 9 9 9 9 10 10 11 11 11 10 11 11 11 11 11 10 9 7
3 3 7 6 6 5 6 6 5 2 2 4 6 8 7 9 5 6 6 8 10 10 10 10 11 11 11 11 11 10 13 12 11
6 6 7 6 7 9 8 7 5 3 2 4 2 4 5 4 4 6 8 9 10 9 9 10 10 11 12 12 9 13 18 14 10
7 5 7 7 9 7 6 6 6 7 6 4 4 4 4 5 5 7 9 10 9 10 10 9 11 12 11 12 12 5 6 9 7
4 4 4 6 7 6 4 5 6 6 5 5 5 4 2 3 4 6 6 7 9 9 8 11 10 10 11 12 11 20 23 24 14
5 5 5 5 5 6 4 6 6 6 5 5 5 4 2 1 2 4 3 5 7 6 5 7 8 6 10 12 10 16 25 25 15
6 4 5 6 6 5 7 5 6 7 5 4 2 0 2 2 3 4 5 5 4 3 4 7 5 8 9 10 9 18 23 20 9
5 6 8 8 8 8 7 6 6 5 6 5 4 3 1 3 3 4 5 5 2 2 4 4 5 6 5 8 9 9 20 23 12
6 7 7 8 8 7 6 6 6 5 6 3 1 2 3 4 5 4 3 5 4 4 3 4 4 5 5 3 4 8 15 20 17
7 9 7 6 7 6 4 6 5 5 3 4 3 2 4 4 5 5 4 3 5 4 3 4 6 5 6 5 5 5 11 18 14
4 3 4 1 4 5 5 2 3 2 3 2 1 4 5 5 5 5 4 3 3 3 4 4 5 4 5 3 3 5 5 8 8
6 3 2 2 2 1 3 2 1 2 4 3 3 4 5 5 5 5 5 5 5 4 6 6 6 6 5 4 5 7 8 10 10
4 4 2 4 4 3 1 1 2 3 2 2 4 5 5 4 4 5 5 5 5 9 11 7 7 9 6 6 11 13 17 18 14
5 6 5 4 4 3 3 3 3 4 4 3 5 5 5 4 5 5 6 4 5 7 3 9 10 10 10 11 11 13 16 18 17
Wind_Direction
183 186 192 186 186 189 186 189 178 179 181 184 187 193 204 197 189 186 190 193 175 194 205 193 169 181 176 173 168 150 150 123 137
197 198 191 189 186 191 189 184 189 186 182 186 188 203 195 197 187 190 193 193 189 196 192 190 183 182 178 174 173 166 161 159 169
289 231 184 186 191 190 194 191 188 181 192 189 180 182 208 211 200 199 185 166 198 203 196 193 186 183 178 176 176 169 170 166 168
334 284 219 174 196 182 177 180 182 185 192 166 88 24 213 208 214 198 181 189 201 202 186 200 196 186 179 181 181 178 175 179 175
348 352 329 172 169 149 161 173 178 193 165 130 154 229 205 203 202 194 193 206 203 188 202 199 202 183 188 188 185 179 181 181 182
10 346 75 123 123 170 158 163 185 188 182 155 189 210 200 187 202 194 199 203 201 194 197 203 195 188 193 197 188 189 193 189 184
316 339 173 137 128 167 186 169 186 201 206 157 169 191 198 213 213 214 209 204 201 198 199 200 198 198 203 199 191 195 185 187 187
326 122 72 75 80 112 134 142 147 158 208 205 180 183 196 219 221 214 201 203 209 206 198 203 200 193 203 203 193 192 189 186 182
237 142 118 124 95 68 65 85 118 137 257 260 168 179 221 230 198 196 203 207 210 206 204 200 193 202 203 198 204 203 192 186 186
215 143 123 112 102 106 109 100 110 104 115 143 188 199 220 225 222 216 215 216 209 211 207 194 210 210 199 199 207 164 183 209 184
175 125 136 105 99 97 117 118 95 98 91 90 95 107 161 215 229 238 229 222 217 215 204 211 215 214 206 201 191 172 173 186 197
183 167 186 136 144 140 151 129 130 116 104 91 77 53 12 302 238 265 241 237 239 231 212 214 218 216 215 208 194 195 175 183 194
172 179 160 150 169 171 151 175 151 147 149 127 123 255 294 287 274 267 272 266 255 225 222 231 211 220 216 215 203 187 186 191 189
165 163 165 173 187 168 172 164 148 161 139 168 191 196 9 353 327 295 284 283 261 259 250 246 239 236 224 218 210 192 186 190 185
181 165 165 177 156 176 189 169 148 166 157 182 180 326 336 328 313 301 299 286 288 274 251 242 235 232 229 213 180 181 193 193 201
192 181 203 183 173 190 214 168 161 175 199 147 161 273 302 304 303 285 267 262 286 302 260 253 257 237 247 220 174 183 198 199 203
207 201 235 260 153 208 208 99 141 159 138 115 76 304 306 311 295 291 271 255 247 256 266 264 270 245 236 232 183 203 194 193 197
209 171 81 72 101 10 55 47 311 1 32 35 330 282 285 287 279 273 267 245 243 237 237 223 241 235 224 204 216 219 192 184 190
140 154 128 113 136 116 61 72 359 330 342 334 289 302 306 292 286 273 254 254 268 227 243 276 282 293 271 224 229 183 191 198 200
111 105 124 109 90 106 102 49 352 322 303 282 285 268 281 279 272 274 267 245 246 270 265 241 249 249 250 245 254 209 197 195 191